CZ-6A DEB, 55530

Orbit data source: Space-Track

CZ-6A DEB, 55530 is space debris in SSO originally from a launch on Fri, 11 Nov 2022 UTC launched from the Taiyaun Space Center, China (TSC). Debris objects in space refer to the collection of defunct objects orbiting the Earth. Examples of debris include non-operational satellites, rocket bodies, and fragments generated from explosions, collisions, or faulty payload assembly.

Loading next visibility...
Identifier
55530, 2022-151YC
Orbit
SSO
Country
Flag of CNCN / PRC
Related business
Manufacturer
SAST
Mission
Spacecraft
Bus & Motor
Unknown
Mass
Unknown
Launch date (UTC)
2022-11-11 (4 years ago)
Launch vehicle
Unknown
Launch site
Taiyaun Space Center, China (TSC)
Object type
Payload
Rocket body
Debris
Shape & HBR
Unknown shape, 0.1 m
Radar Cross Section
Small (<0.1 m²)

Expand to show TLE details & history
Last TLE update: 2 days ago

TLE from 2 days ago
0 CZ-6A DEB
1 55530U 22151YC  26171.22631622  .00052314  00000-0  32140-2 0  9997
2 55530  98.6012 270.0202 0044256 152.5323 207.8255 15.09049495187507
Epoch: 2026-06-20T05:25Z
TLE epoch observation values (Epoch: 2026-06-20T05:25:53.721Z)
Latitude
-0.00006°
Longitude
-79.89761°
Altitude
569.251 km
Speed
7.562 km/s
True Right ascension
18h 00m 04s
True Declination
0° 00' 00"
Sunlit
Object was in full shadow at epoch
Visualization orbit readout
Latitude
Unknown
Longitude
Unknown
Altitude
Unknown
Speed
Unknown
Apparent Right ascension
Unknown
Apparent Declination
Unknown
Sunlit
N/A
Visualization observer readout
Local Sidereal Time
21:41:41
Azimuth
Unknown
Elevation
Unknown
Doppler factor
Unknown
Orbital elements
Apogee altitude
566.738 km
Perigee altitude
505.539 km
Semi-major axis
6,914.275 km
Eccentricity
0.00443
Inclination
98.6012°
RAAN
270.0202°
Arg. of periapsis
152.5323°
True anomaly
207.58993°
Mean anomaly
207.8255°
Eccentric anomaly
207.7076°
Mean motion
3.77505 °/min
Orbital period
95.36 mins
BSTAR
0.003214
Loading maneuver chart data...
Computing Atmospheric mass density...
Loading historical data...
Loading historical data...
Loading historical data...
Loading historical data...
Loading historical data...
Loading historical data...
Loading historical data...

Documentation

Showing up to 5 results
|